Torna al catalogo

EXPRESS 2

AttivoComunicazioniGEO
NORAD 24435·PAYLOAD·🇷🇺 Russia

Lanciato Sep 26, 1996 da Baikonur Cosmodrome

Loading…

TLE

AggiornatoSource: Space-Track

Epoca: Sep 13, 2026, 17:45 UTC

1 24435U 96058A   26256.74016789 -.00000344  00000-0  00000-0 0  9991
2 24435  14.5581 353.6605 0009092 350.8626  17.6561  1.00269973109702

Traccia EXPRESS 2 in tempo reale con AllMySat

Download on the App Store